EW2817 Weather Reports


time (UTC)temp
C
wind
direction
speed
KPH
gust
KPH
rain 1hr
cm
rain 24hr
cm
rain mn
cm
humidity
%
barometer
mb
20260503235231 15 0 0.0 0.0 0.00 0.00 0.00 48 992.3
20260503233732 16 0 0.0 0.0 0.00 0.00 0.00 46 992.1
20260503232231 16 0 0.0 0.0 0.00 0.00 0.00 45 992.1
20260503230731 16 0 0.0 0.0 0.00 0.00 0.00 44 992.1
20260503225229 17 0 0.0 0.0 0.00 0.00 0.00 42 992.2
20260503222227 17 0 0.0 0.0 0.00 0.00 0.00 40 992.5
20260503220727 17 0 0.0 0.0 0.00 0.00 0.00 35 992.5
20260503215227 17 0 0.0 0.0 0.00 0.00 0.00 37 992.5
20260503213725 17 0 0.0 0.0 0.00 0.00 0.00 35 992.5
20260503212225 17 0 0.0 0.0 0.00 0.00 0.00 38 992.6
20260503210722 17 0 0.0 0.0 0.00 0.00 0.00 36 992.7
20260503205219 17 0 0.0 0.0 0.00 0.00 0.00 38 992.8
20260503202217 18 0 0.0 0.0 0.00 0.00 0.00 38 993.0
20260503200717 17 0 0.0 0.0 0.00 0.00 0.00 36 993.1
20260503195213 18 0 0.0 0.0 0.00 0.00 0.00 36 993.3
20260503192208 18 0 0.0 0.0 0.00 0.00 0.00 37 993.6
20260503190708 18 0 0.0 0.0 0.00 0.00 0.00 36 993.8
20260503185207 18 0 0.0 0.0 0.00 0.00 0.00 34 994.0
20260503183704 18 0 0.0 0.0 0.00 0.00 0.00 37 994.1
20260503182205 18 0 0.0 0.0 0.00 0.00 0.00 35 994.3
20260503180702 18 0 0.0 0.0 0.00 0.00 0.00 33 994.5
20260503175203 18 0 0.0 0.0 0.00 0.00 0.00 35 994.4
20260503173701 18 0 0.0 0.0 0.00 0.00 0.00 35 994.7
20260503172156 18 0 0.0 0.0 0.00 0.00 0.00 36 994.8
20260503170654 17 0 0.0 0.0 0.00 0.00 0.00 39 995.1
20260503130643 8 0 0.0 0.0 0.00 0.00 0.00 77 995.6
20260503080617 6 0 0.0 0.0 0.00 0.00 0.00 84 992.3
20260503070611 6 0 0.0 0.0 0.00 0.00 0.00 85 991.7
20260503055104 6 0 0.0 0.0 0.00 0.00 0.00 89 991.4
20260503053602 6 0 0.0 0.0 0.00 0.00 0.00 90 991.5
20260503052100 7 0 0.0 0.0 0.00 0.00 0.00 89 991.5
20260503050559 7 0 0.0 0.0 0.00 0.00 0.00 89 991.4
20260503045059 7 0 0.0 0.0 0.00 0.00 0.00 89 991.4
20260503043557 7 0 0.0 0.0 0.00 0.00 0.00 88 991.4
20260503042056 7 0 0.0 0.0 0.00 0.00 0.00 88 991.2
20260503040556 7 0 0.0 0.0 0.00 0.00 0.00 89 991.2
20260503035054 8 0 0.0 0.0 0.00 0.00 0.00 89 991.1
20260503033554 8 0 0.0 0.0 0.00 0.00 0.00 89 991.0
20260503030550 8 0 0.0 0.0 0.00 0.00 0.00 88 990.8
20260503025049 9 0 0.0 0.0 0.00 0.00 0.00 87 990.7
20260503023550 9 0 0.0 0.0 0.00 0.00 0.00 86 990.5
20260503022050 9 0 0.0 0.0 0.00 0.00 0.00 86 990.4
20260503020548 10 0 0.0 0.0 0.00 0.00 0.00 86 990.4
20260503015046 10 0 0.0 0.0 0.00 0.00 0.00 85 990.2
20260503013545 10 0 0.0 0.0 0.00 0.00 0.00 86 990.0
20260503012045 10 0 0.0 0.0 0.00 0.00 0.00 85 989.7
20260503003542 11 0 0.0 0.0 0.00 0.00 0.00 83 989.6
20260503002041 12 0 0.0 0.0 0.00 0.00 0.00 81 989.4